Wind_Speed
9 10 9 6 10 8 8 8 8 8 9 10 10 8 5 4 6 6 6 5 5 3 5 5 6 6 6 6 7 7 7 7 6
10 12 12 9 11 10 9 9 9 9 9 9 8 7 5 4 5 6 5 3 4 4 4 5 5 5 5 4 5 5 5 4 4
12 13 13 11 14 13 10 9 9 10 11 11 9 8 6 5 5 6 5 4 5 5 4 4 5 4 4 4 4 3 3 2 2
15 15 15 15 16 16 13 11 10 11 12 12 11 10 10 8 6 7 7 6 6 7 6 5 5 5 4 4 4 4 3 2 2
18 17 18 16 17 18 16 13 11 14 16 15 14 13 12 11 10 9 10 9 8 9 8 7 7 7 6 6 5 5 5 4 3
21 20 20 19 18 19 18 16 14 13 13 14 15 14 15 14 13 12 10 12 11 11 11 10 9 9 9 8 8 7 7 7 6
24 22 22 21 20 20 20 18 17 16 15 15 15 16 16 17 15 14 13 12 13 13 14 13 12 12 11 11 10 10 10 9 9
26 25 24 24 23 23 22 21 20 20 18 16 17 17 17 17 17 15 14 15 14 14 16 17 15 14 14 13 13 12 12 12 12
24 27 28 27 27 27 25 25 24 23 21 19 18 18 18 18 18 17 17 17 18 17 18 19 18 16 16 15 15 15 15 15 15
22 24 29 31 30 29 30 30 28 27 25 23 20 19 19 19 19 19 18 18 19 20 19 20 20 20 17 17 17 18 18 18 18
23 25 23 27 30 31 31 32 31 30 28 26 23 21 21 20 20 20 22 22 21 20 22 21 21 22 21 20 20 19 21 20 21
24 23 24 22 25 30 30 29 29 29 29 27 24 21 21 22 21 20 19 20 23 23 22 24 23 23 24 23 24 24 25 25 25
23 22 23 24 22 25 27 27 27 27 29 27 26 21 19 18 18 20 21 21 20 21 24 25 26 27 27 28 27 27 27 27 28
22 22 20 22 23 19 22 22 25 22 24 24 20 16 18 20 21 23 22 22 22 23 24 26 27 29 31 32 32 33 31 30 29
21 20 19 19 21 19 18 20 22 23 19 15 15 14 15 17 19 21 21 22 24 24 26 28 30 31 31 32 34 37 36 35 34
18 17 18 18 19 19 21 19 24 21 13 8 5 10 14 19 22 22 23 24 24 26 29 31 33 34 35 34 34 34 37 35 37
14 17 18 16 15 16 17 19 21 17 13 5 3 3 5 7 11 12 12 15 17 21 23 25 28 31 32 34 34 35 37 36 33
11 12 15 14 14 13 13 12 12 8 7 8 5 2 3 3 6 6 15 17 20 23 26 29 30 31 31 30 31 32 32 33 36
10 10 11 11 12 11 7 4 3 5 5 1 4 8 5 2 4 4 16 23 22 24 25 30 34 35 35 34 35 34 32 31 31
3 2 6 6 9 10 11 11 8 6 6 2 8 6 11 16 7 7 7 15 23 24 26 28 33 34 34 35 35 34 34 33 32
Wind_Direction
232 220 219 220 200 193 183 182 182 183 181 175 173 175 168 159 170 161 141 131 146 133 132 128 126 123 120 117 116 115 114 116 115
236 225 225 230 216 209 199 194 195 193 191 192 194 195 190 179 171 173 166 147 172 170 155 154 153 149 142 135 127 124 120 119 116
240 231 227 232 218 217 214 211 208 207 199 200 208 217 217 211 201 193 190 178 191 197 194 188 183 178 170 167 159 151 148 142 128
243 237 231 233 224 223 220 221 217 220 216 209 213 225 229 229 221 218 219 213 202 220 223 221 214 211 207 203 201 196 197 196 198
247 243 241 237 227 223 225 228 228 222 226 226 226 228 234 234 234 236 234 225 222 228 233 236 232 230 231 231 229 229 230 238 246
252 245 242 238 235 232 230 229 231 228 230 231 234 233 234 237 240 245 246 237 237 236 242 247 243 240 242 246 245 244 246 250 255
256 253 249 242 239 237 237 238 233 233 233 232 232 234 238 241 243 246 244 245 247 245 248 258 255 249 247 250 252 251 251 252 254
262 257 249 245 241 239 236 235 234 233 236 238 234 234 234 238 245 253 250 243 249 250 250 254 264 257 254 251 253 254 254 256 255
266 263 256 247 242 240 237 235 234 234 237 241 240 241 242 243 247 254 256 253 251 255 253 256 258 264 260 255 254 255 257 258 259
275 272 267 257 250 241 237 236 235 233 234 237 240 242 246 250 254 256 257 258 258 257 260 254 253 257 260 258 257 258 261 260 260
282 276 276 265 257 251 245 241 236 234 232 234 238 244 250 254 257 260 260 258 259 261 258 261 255 256 258 258 260 265 266 268 268
288 280 273 273 265 257 252 247 245 242 232 235 240 244 250 255 257 258 259 258 256 258 260 260 262 262 258 261 263 267 265 267 267
278 282 274 270 278 258 256 254 244 241 237 236 239 250 256 260 259 262 260 260 260 257 257 262 265 265 265 262 260 261 265 266 269
277 280 280 272 267 264 251 250 245 238 237 238 242 242 256 264 266 265 262 263 266 265 264 266 267 267 267 265 263 261 261 265 266
269 278 281 271 261 263 261 252 251 240 246 242 244 249 255 259 261 265 267 267 267 270 272 272 270 273 273 269 267 267 268 267 268
258 269 267 268 255 264 268 270 253 241 230 205 235 260 265 263 263 266 268 269 271 272 274 275 277 276 278 274 272 268 271 273 268
259 267 263 261 257 262 269 261 245 229 221 165 119 2 325 278 267 261 272 285 292 291 289 284 281 278 281 277 277 276 276 271 272
286 272 256 256 259 256 256 253 227 176 189 198 149 101 243 310 272 283 294 292 296 294 292 288 286 285 285 283 281 282 278 276 277
278 277 252 245 238 223 207 181 218 217 140 111 246 231 250 272 309 303 303 292 288 291 296 293 284 283 285 284 285 283 282 283 284
2 198 199 169 148 143 131 107 96 74 114 126 251 260 271 267 242 285 282 293 293 286 287 287 282 279 279 282 285 285 282 283 284
Height
813 814 814 814 815 815 816 817 818 819 820 820 820 821 821 821 822 823 823 824 825 824 824 825 825 826 826 826 827 827 827 828 828
810 811 812 813 814 814 814 815 816 818 819 821 821 821 822 822 822 822 823 823 825 824 824 824 825 825 826 827 827 828 828 828 828
809 809 810 811 811 812 813 814 816 816 818 819 820 821 821 822 822 822 822 823 824 824 824 824 824 825 825 826 826 827 827 827 827
807 807 807 807 808 810 810 812 813 815 816 817 818 819 820 821 821 821 822 822 823 824 824 824 824 824 825 825 825 826 826 826 826
804 804 805 805 805 806 808 809 811 813 814 815 816 817 818 819 819 820 820 821 821 823 823 823 823 824 824 824 825 825 826 826 826
802 802 802 802 803 804 805 806 808 809 811 812 814 815 815 816 817 818 819 820 820 822 822 822 822 823 823 824 824 824 824 825 825
798 799 800 800 800 801 802 804 805 806 807 808 810 811 813 814 814 815 817 818 819 820 821 820 821 821 822 822 822 822 823 823 823
794 794 795 796 797 798 799 800 802 803 804 805 806 807 808 810 811 812 814 814 815 817 818 818 818 819 819 820 820 820 820 821 821
788 790 790 790 792 793 795 796 797 798 800 801 802 804 805 806 807 809 810 811 812 813 814 815 816 816 817 817 818 818 818 818 819
784 784 785 786 786 787 788 790 792 793 795 796 798 799 801 803 804 805 806 807 808 808 810 810 812 813 813 814 814 815 815 815 815
779 779 779 780 781 782 783 784 786 787 789 791 793 795 796 798 799 800 801 802 803 804 805 806 808 809 810 810 810 811 811 811 811
776 774 775 774 774 777 778 780 782 783 783 786 788 790 791 793 794 794 795 796 798 800 800 801 802 803 804 806 806 806 806 806 806
771 770 768 770 770 771 773 775 776 778 779 781 782 785 787 788 789 789 790 791 792 793 795 796 797 798 799 799 799 800 800 800 800
765 765 763 764 766 767 768 770 772 772 774 775 777 781 783 784 785 784 785 785 786 787 789 790 791 792 793 793 793 792 793 793 794
758 759 759 760 761 762 764 765 767 767 769 772 774 777 778 779 780 780 781 781 781 782 783 783 784 785 785 785 786 786 787 787 787
752 752 755 756 756 757 759 759 763 764 767 769 772 774 774 775 774 776 777 777 777 777 777 777 777 776 777 778 779 779 779 779 780
746 748 748 750 752 752 754 756 759 759 763 767 771 773 773 770 770 771 772 772 772 772 771 771 771 771 770 770 771 772 772 772 772
743 744 745 746 747 749 751 752 746 751 760 762 766 775 778 773 769 769 769 769 769 768 767 765 765 764 764 764 764 764 763 764 765
739 739 741 743 745 746 749 750 751 751 756 763 766 769 772 771 769 764 765 765 764 764 761 760 759 759 757 757 757 758 757 757 757
735 737 740 742 744 745 748 751 753 756 758 761 769 764 766 769 770 765 762 761 761 758 755 752 751 751 751 750 750 750 751 751 750